Location: Isola Pescaroli
(45.0500°N, 10.1667°E)
Time: 01:39:26
(UTC+00:00)

SL-4 R/B - Pass Details

Date: 16 June 2021
Orbit: 428 x 662 km, 51.6° (Epoch: 29 July)

Event Time Altitude Azimuth Distance (km) Brightness Sun altitude
Exits shadow 00:12:53 41° 271° (W) 724 2.5 -20.5°
Maximum altitude 00:14:00 63° 334° (NNW) 540 2.1 -20.5°
Drops below altitude 10° 00:17:36 10° 57° (ENE) 1,609 5.0 -20.4°
Sets 00:19:41 0° 61° (ENE) 2,457 6.0 -20.3°
